Regional Weather Roundup
Issued by NWS

Home | Current Version | Previous Version | Graphics & Text | Print | Product List | Glossary On
Versions: 1 2 3 4 5 6 7 8 9 10 11 12 13 14 15 16 17 18 19 20 21 22 23 24 25 26 27 28 29 30 31 32 33 34 35 36 37 38 39 40 41 42 43 44 45 46 47 48 49 50
000
ASUS43 KFSD 232310
RWRSD

WEATHER ROUNDUP FOR SOUTH DAKOTA
NATIONAL WEATHER SERVICE SIOUX FALLS SD
600 PM CDT WED JUL 23 2014

NOTE: "FAIR" INDICATES FEW OR NO CLOUDS BELOW 12,000 FEET WITH NO
SIGNIFICANT WEATHER AND/OR OBSTRUCTIONS TO VISIBILITY.


SDZ001>005-009-010-012>017-240000-
NORTHWEST AND NORTH CENTRAL SOUTH DAKOTA

CITY           SKY/WX    TMP DP  RH WIND       PRES   REMARKS
BUFFALO          N/A     86  60  41 SE23G30   30.01F
FAITH            N/A     84  62  47 SE23G31   30.09F
MOBRIDGE       SUNNY     82  58  43 SE16      30.13F
$$

SDZ012>016-024>037-041>051-057-063-072>074-240000-
SOUTHWEST AND SOUTH CENTRAL SOUTH DAKOTA

CITY           SKY/WX    TMP DP  RH WIND       PRES   REMARKS
RAPID CTY ARPT SUNNY     84  63  49 SE15      30.11F
PIERRE         PTSUNNY   85  54  34 E17       30.13R
CUSTER         SUNNY     79  61  53 SE8G16    30.28F
ELLSWORTH AFB  SUNNY     86  63  45 S17       30.11F
PHILIP         SUNNY     92  58  31 SE16G23   30.08F
PINE RIDGE     SUNNY     86  67  52 E15G23    30.12F
WINNER         FAIR      88  52  29 SE15      30.15F
$$

SDZ004>011-016>023-039-040-240000-
NORTHEAST SOUTH DAKOTA

CITY           SKY/WX    TMP DP  RH WIND       PRES   REMARKS
ABERDEEN       SUNNY     80  55  42 SE9       30.19F
WATERTOWN      SUNNY     78  54  43 E8        30.22F
SISSETON         N/A     78  58  49 E7        30.20F
$$

SDZ017-020-022-023-036>040-048>070-240000-
SOUTHEAST SOUTH DAKOTA

CITY           SKY/WX    TMP DP  RH WIND       PRES   REMARKS
SIOUX FALLS    MOSUNNY   79  57  46 E13       30.19F
HURON          MOSUNNY   79  55  43 SE10      30.18F
CHAMBERLAIN    SUNNY     85  51  31 SE12      30.15F
MITCHELL       SUNNY     82  58  43 SE9       30.18F
YANKTON        SUNNY     81  59  47 E7        30.18F
$$

ABBREVIATIONS USED IN REMARKS
   TC - TEMPERATURE IN CELSIUS
  WCI - WIND CHILL INDEX
   HX - HEAT INDEX
  VSB - VISIBILITY



USA.gov is the U.S. government's official web portal to all federal, state and local government web resources and services.